Location: Bremen
(53.0793°N, 8.8017°E)
Time: 01:39:04
(UTC+02:00)

A-11 Canister half - Pass Details

Date: 25 April 2024
Orbit: 1525 x 1683 km, 47.3° (Epoch: 19 May)

Event Time Altitude Azimuth Distance (km) Brightness Sun altitude
Exits shadow 04:46:48 - 194° (SSW) 4,582 11.0 -10.6°
Reaches altitude 10° 04:49:43 10° 184° (S) 3,864 10.7 -10.2°
Maximum altitude 04:57:09 25° 134° (SE) 2,900 10.6 -9.4°
Drops below altitude 10° 05:04:43 10° 85° (E) 3,943 12.2 -8.4°
Sets 05:08:38 0° 74° (ENE) 4,941 13.3 -8.0°
